User: anonymous   Login
Location: NJAA Observatory
(40.6819°N, 74.8979°W)
Time: 18:22:54
(UTC-05:00)
Language:

Cosmos 220 Rocket - Orbit

View from above orbital plane
View from above orbital plane
View from above satellite
View from above satellite

Ground track
Ground track

The orbit data is extracted from the following two-line orbital elements,

1 03230U 68040B   17050.54507466  .00000258  00000-0  30534-4 0  9990
2 03230  74.0359 118.6201 0029030 102.3211 258.1223 14.90072619617995
Epoch (UTC): 19 February 2017 13:04:54
Eccentricity: 0.0029030
inclination: 74.0359°
perigee height: 577 km
apogee height: 618 km
right ascension of ascending node: 118.6201°
argument of perigee: 102.3211°
revolutions per day: 14.90072619
mean anomaly at epoch: 258.1223°
orbit number at epoch: 61799

The dashed part of the orbit path shows where the satellite is in the earth's shadow,  

DLR